• In Lithuania
  • List of Countries
  • For 7 days
  • Water Temperature
  • Satellite Maps
  • Weather Map
  • Weather Widgets
  • user-avatar
    Login

    Hourly Weather Dalat

    Today, 21 November, Tuesday

    Time Temperature Precipitation Wind Pressure Humidity
    00:00 +16°C° 0 mm 1 mps 652 mmHg 90%
    01:00 +16°C° 0 mm 1 mps 652 mmHg 87%
    02:00 +16°C° 0 mm 1 mps 652 mmHg 85%
    03:00 +16°C° 0 mm 1 mps 652 mmHg 83%
    04:00 +16°C° 0 mm 1 mps 652 mmHg 81%
    05:00 +18°C° 0 mm 1 mps 652 mmHg 80%
    06:00 +19°C° 0 mm 1 mps 652 mmHg 79%
    07:00 +20°C° 0 mm 1 mps 653 mmHg 76%
    08:00 +22°C° 0 mm 1 mps 654 mmHg 70%
    09:00 +24°C° 0 mm 1 mps 654 mmHg 64%
    10:00 +26°C° 0 mm 2 mps 655 mmHg 58%
    11:00 +26°C° 0.4 mm 2 mps 655 mmHg 61%
    12:00 +26°C° 0.4 mm 2 mps 654 mmHg 64%
    13:00 +26°C° 0 mm 2 mps 654 mmHg 67%
    14:00 +25°C° 0.7 mm 2 mps 653 mmHg 72%
    15:00 +25°C° 0.7 mm 2 mps 653 mmHg 77%
    16:00 +24°C° 0.7 mm 2 mps 652 mmHg 83%
    17:00 +22°C° 0.2 mm 1 mps 652 mmHg 87%
    18:00 +21°C° 0.2 mm 1 mps 652 mmHg 92%
    19:00 +20°C° 0.2 mm 1 mps 652 mmHg 96%
    20:00 +19°C° 0 mm 1 mps 652 mmHg 96%
    21:00 +19°C° 0 mm 1 mps 652 mmHg 96%
    22:00 +19°C° 0 mm 1 mps 652 mmHg 96%
    23:00 +19°C° 0 mm 1 mps 652 mmHg 96%

    Tomorrow, 22 November, Wednesday

    Time Temperature Precipitation Wind Pressure Humidity
    00:00 +18°C° 0 mm 1 mps 652 mmHg 96%
    01:00 +18°C° 0 mm 1 mps 652 mmHg 96%
    02:00 +18°C° 0 mm 1 mps 651 mmHg 95%
    03:00 +18°C° 0 mm 1 mps 651 mmHg 95%
    04:00 +18°C° 0 mm 1 mps 651 mmHg 95%
    05:00 +18°C° 0 mm 1 mps 651 mmHg 93%
    06:00 +19°C° 0 mm 1 mps 651 mmHg 92%
    07:00 +19°C° 0 mm 1 mps 652 mmHg 90%
    08:00 +21°C° 0 mm 1 mps 653 mmHg 79%
    09:00 +24°C° 0 mm 1 mps 654 mmHg 67%
    10:00 +26°C° 0 mm 2 mps 654 mmHg 56%
    11:00 +27°C° 0 mm 2 mps 654 mmHg 53%
    12:00 +28°C° 0 mm 2 mps 654 mmHg 51%
    13:00 +28°C° 0 mm 2 mps 653 mmHg 48%
    14:00 +27°C° 0 mm 2 mps 653 mmHg 54%
    15:00 +26°C° 0 mm 2 mps 652 mmHg 59%
    16:00 +25°C° 0 mm 2 mps 652 mmHg 65%
    17:00 +23°C° 0 mm 1 mps 651 mmHg 75%
    18:00 +21°C° 0 mm 1 mps 651 mmHg 85%
    19:00 +19°C° 0 mm 1 mps 651 mmHg 95%
    20:00 +19°C° 0 mm 1 mps 651 mmHg 95%
    21:00 +18°C° 0 mm 1 mps 652 mmHg 96%
    22:00 +18°C° 0 mm 1 mps 652 mmHg 97%
    23:00 +18°C° 0 mm 1 mps 652 mmHg 96%

    Day after tomorrow, 23 November, Thursday

    Time Temperature Precipitation Wind Pressure Humidity
    00:00 +16°C° 0 mm 1 mps 651 mmHg 96%
    01:00 +16°C° 0 mm 1 mps 651 mmHg 95%
    02:00 +16°C° 0 mm 1 mps 651 mmHg 95%
    03:00 +16°C° 0 mm 1 mps 650 mmHg 95%
    04:00 +16°C° 0 mm 1 mps 650 mmHg 95%
    05:00 +18°C° 0 mm 1 mps 651 mmHg 93%
    06:00 +19°C° 0 mm 1 mps 652 mmHg 92%
    07:00 +19°C° 0 mm 1 mps 652 mmHg 91%
    08:00 +20°C° 0 mm 2 mps 653 mmHg 82%
    09:00 +23°C° 0 mm 2 mps 654 mmHg 73%
    10:00 +25°C° 0 mm 2 mps 655 mmHg 64%
    11:00 +26°C° 0 mm 2 mps 654 mmHg 63%
    12:00 +26°C° 0 mm 2 mps 654 mmHg 61%
    13:00 +27°C° 0 mm 2 mps 653 mmHg 59%
    14:00 +25°C° 0.3 mm 2 mps 653 mmHg 66%
    15:00 +24°C° 0.3 mm 2 mps 652 mmHg 73%
    16:00 +23°C° 0.3 mm 2 mps 651 mmHg 79%
    17:00 +21°C° 0.1 mm 2 mps 652 mmHg 85%
    18:00 +20°C° 0.1 mm 2 mps 652 mmHg 90%
    19:00 +19°C° 0.1 mm 1 mps 652 mmHg 95%
    20:00 +19°C° 0 mm 1 mps 652 mmHg 96%
    21:00 +19°C° 0 mm 1 mps 652 mmHg 96%
    22:00 +19°C° 0 mm 1 mps 653 mmHg 96%
    23:00 +18°C° 0 mm 1 mps 652 mmHg 96%

    24 November, Friday

    Time Temperature Precipitation Wind Pressure Humidity
    00:00 +18°C° 0 mm 1 mps 652 mmHg 96%
    01:00 +17°C° 0 mm 2 mps 652 mmHg 96%
    02:00 +17°C° 0 mm 2 mps 652 mmHg 96%
    03:00 +17°C° 0 mm 2 mps 651 mmHg 96%
    04:00 +17°C° 0 mm 2 mps 651 mmHg 96%
    05:00 +17°C° 0 mm 2 mps 652 mmHg 94%
    06:00 +18°C° 0 mm 2 mps 652 mmHg 93%
    07:00 +18°C° 0 mm 2 mps 653 mmHg 91%
    08:00 +20°C° 0 mm 2 mps 653 mmHg 84%
    09:00 +21°C° 0 mm 3 mps 654 mmHg 77%
    10:00 +24°C° 0 mm 3 mps 655 mmHg 70%
    11:00 +25°C° 0.1 mm 3 mps 654 mmHg 67%
    12:00 +25°C° 0.1 mm 3 mps 654 mmHg 63%
    13:00 +26°C° 0.1 mm 3 mps 654 mmHg 60%
    14:00 +25°C° 0.1 mm 3 mps 653 mmHg 65%
    15:00 +24°C° 0.1 mm 3 mps 653 mmHg 69%
    16:00 +24°C° 0.1 mm 3 mps 652 mmHg 73%
    17:00 +21°C° 0 mm 2 mps 652 mmHg 80%
    18:00 +20°C° 0 mm 2 mps 653 mmHg 86%
    19:00 +18°C° 0 mm 2 mps 653 mmHg 93%
    20:00 +18°C° 0 mm 2 mps 653 mmHg 93%
    21:00 +18°C° 0 mm 2 mps 653 mmHg 94%
    22:00 +17°C° 0 mm 2 mps 653 mmHg 95%
    23:00 +17°C° 0.1 mm 2 mps 653 mmHg 95%

    25 November, Saturday

    Time Temperature Precipitation Wind Pressure Humidity
    00:00 +17°C° 0.1 mm 2 mps 652 mmHg 95%
    01:00 +17°C° 0.1 mm 2 mps 652 mmHg 95%
    02:00 +17°C° 0.2 mm 2 mps 652 mmHg 95%
    03:00 +17°C° 0.2 mm 2 mps 652 mmHg 95%
    04:00 +17°C° 0.2 mm 2 mps 652 mmHg 96%
    05:00 +18°C° 0.2 mm 2 mps 652 mmHg 94%
    06:00 +18°C° 0.2 mm 2 mps 653 mmHg 93%
    07:00 +19°C° 0.2 mm 2 mps 654 mmHg 91%
    08:00 +20°C° 0.2 mm 2 mps 654 mmHg 85%
    09:00 +21°C° 0.2 mm 3 mps 655 mmHg 79%
    10:00 +24°C° 0.2 mm 3 mps 655 mmHg 73%
    11:00 +24°C° 0.2 mm 3 mps 655 mmHg 70%
    12:00 +25°C° 0.2 mm 3 mps 654 mmHg 68%
    13:00 +26°C° 0.2 mm 3 mps 654 mmHg 65%
    14:00 +25°C° 0.1 mm 3 mps 653 mmHg 68%
    15:00 +24°C° 0.1 mm 3 mps 653 mmHg 72%
    16:00 +23°C° 0.1 mm 2 mps 652 mmHg 75%
    17:00 +21°C° 0.1 mm 2 mps 653 mmHg 81%
    18:00 +20°C° 0.1 mm 2 mps 653 mmHg 87%
    19:00 +18°C° 0.1 mm 2 mps 653 mmHg 93%
    20:00 +18°C° 0 mm 2 mps 653 mmHg 93%
    21:00 +18°C° 0 mm 2 mps 653 mmHg 94%
    22:00 +19°C° 0 mm 1 mps 653 mmHg 94%
    23:00 +19°C° 0.2 mm 1 mps 653 mmHg 95%

    26 November, Sunday

    Time Temperature Precipitation Wind Pressure Humidity
    00:00 +19°C° 0.2 mm 1 mps 653 mmHg 95%
    01:00 +19°C° 0.2 mm 1 mps 653 mmHg 95%
    02:00 +19°C° 0.2 mm 1 mps 653 mmHg 95%
    03:00 +18°C° 0.2 mm 1 mps 652 mmHg 95%
    04:00 +18°C° 0.2 mm 1 mps 652 mmHg 96%
    05:00 +18°C° 0.2 mm 2 mps 653 mmHg 94%
    06:00 +18°C° 0.2 mm 2 mps 653 mmHg 93%
    07:00 +19°C° 0.2 mm 2 mps 654 mmHg 92%
    08:00 +20°C° 0.1 mm 2 mps 654 mmHg 86%
    09:00 +21°C° 0.1 mm 3 mps 655 mmHg 81%
    10:00 +22°C° 0.1 mm 3 mps 655 mmHg 76%
    11:00 +24°C° 0.1 mm 3 mps 654 mmHg 74%
    12:00 +24°C° 0.1 mm 3 mps 654 mmHg 72%
    13:00 +25°C° 0.1 mm 3 mps 653 mmHg 70%
    14:00 +24°C° 0.1 mm 3 mps 653 mmHg 72%
    15:00 +24°C° 0.1 mm 3 mps 653 mmHg 74%
    16:00 +23°C° 0.1 mm 2 mps 652 mmHg 76%
    17:00 +21°C° 0 mm 2 mps 652 mmHg 81%
    18:00 +20°C° 0 mm 2 mps 652 mmHg 87%
    19:00 +18°C° 0 mm 2 mps 653 mmHg 92%
    20:00 +18°C° 0 mm 2 mps 653 mmHg 93%
    21:00 +18°C° 0 mm 2 mps 653 mmHg 94%
    22:00 +18°C° 0 mm 2 mps 653 mmHg 95%
    23:00 +17°C° 0 mm 2 mps 652 mmHg 95%
    Show more